Monroe, MI

7:44 PM EDT on May 24, 2018 (GMT -0400)
Custer

Weather History for KTTF - April, 2014

Change the Weather History Date:

Friday, April 18, 2014

  Actual Average Record
Temperature  
Mean Temperature 51 °F -  
Max Temperature 60 °F 58 °F 87 °F (1976)
Min Temperature 42 °F 38 °F 24 °F (1983)
Degree Days  
Heating Degree Days 14    
Growing Degree Days 1 (Base 50)    
Moisture  
Dew Point 41 °F    
Average Humidity 67    
Maximum Humidity 87    
Minimum Humidity 52    
Precipitation  
Precipitation 0.00 in - - ()
Sea Level Pressure  
Sea Level Pressure 30.24 in    
Wind  
Wind Speed 3 mph (SE)    
Max Wind Speed 12 mph    
Max Gust Speed -    
Visibility 10 miles    
Events      
Averages and records for this station are not official NWS values.
T = Trace of Precipitation, MM = Missing Value Source: NWS Daily Summary

Daily Weather History Graph

Daily Weather History Graph

Search for Another Location

Airport or City:

Astronomy

Apr. 18, 2014 Rise Set
Actual Time 6:48 AM EDT 8:18 PM EDT
Civil Twilight 6:19 AM EDT 8:47 PM EDT
Nautical Twilight 5:44 AM EDT 9:22 PM EDT
Astronomical Twilight 5:06 AM EDT 10:00 PM EDT
Moon No Moon Rise 9:07 AM EDT (4/18)
Length of Visible Light 14h 27m
Length of Day
13h 29m
Waning Gibbous, 87% of the Moon is Illuminated
Apr 18
Waning Gibbous
Apr 22
Last Quarter
Apr 29
New
May 6
First Quarter
May 14
Full

Hourly Weather History & Observations

Time (EDT) Temp. Windchill Dew Point Humidity Pressure Visibility Wind Dir Wind Speed Gust Speed Precip Events Conditions
12:14 AM 50.0 °F - 39.2 °F 66% 30.23 in 10.0 mi South 3.5 mph - N/A   Clear
12:34 AM 50.0 °F - 37.4 °F 62% 30.23 in 10.0 mi South 3.5 mph - N/A   Scattered Clouds
12:54 AM 48.2 °F - 37.4 °F 66% 30.23 in 10.0 mi South 3.5 mph - N/A   Scattered Clouds
1:14 AM 48.2 °F - 37.4 °F 66% 30.23 in 10.0 mi South 4.6 mph - N/A   Clear
1:34 AM 51.8 °F - 37.4 °F 58% 30.23 in 10.0 mi SSW 4.6 mph - N/A   Clear
1:54 AM 51.8 °F - 37.4 °F 58% 30.22 in 10.0 mi SSW 4.6 mph - N/A   Clear
2:14 AM 51.8 °F - 37.4 °F 58% 30.21 in 10.0 mi SSW 4.6 mph - N/A   Scattered Clouds
2:34 AM 51.8 °F - 37.4 °F 58% 30.21 in 10.0 mi SSW 3.5 mph - N/A   Mostly Cloudy
2:54 AM 48.2 °F - 37.4 °F 66% 30.21 in 10.0 mi Calm Calm - N/A   Mostly Cloudy
3:15 AM 48.2 °F - 37.4 °F 66% 30.21 in 10.0 mi Calm Calm - N/A   Clear
3:35 AM 46.4 °F - 39.2 °F 76% 30.21 in 10.0 mi Calm Calm - N/A   Clear
3:55 AM 48.2 °F - 37.4 °F 66% 30.22 in 10.0 mi Calm Calm - N/A   Clear
4:15 AM 46.4 °F - 37.4 °F 71% 30.21 in 10.0 mi Calm Calm - N/A   Clear
4:35 AM 46.4 °F - 37.4 °F 71% 30.21 in 10.0 mi Calm Calm - N/A   Clear
4:55 AM 44.6 °F - 37.4 °F 76% 30.21 in 10.0 mi Calm Calm - N/A   Clear
5:15 AM 42.8 °F - 37.4 °F 81% 30.22 in 10.0 mi Calm Calm - N/A   Mostly Cloudy
5:35 AM 42.8 °F - 37.4 °F 81% 30.22 in 10.0 mi Calm Calm - N/A   Mostly Cloudy
5:55 AM 44.6 °F 42.2 °F 37.4 °F 76% 30.24 in 10.0 mi WNW 4.6 mph - N/A   Mostly Cloudy
6:16 AM 46.4 °F 45.2 °F 37.4 °F 71% 30.24 in 10.0 mi WNW 3.5 mph - N/A   Scattered Clouds
6:36 AM 44.6 °F 43.1 °F 37.4 °F 76% 30.25 in 10.0 mi NW 3.5 mph - N/A   Clear
6:56 AM 44.6 °F 43.1 °F 37.4 °F 76% 30.26 in 10.0 mi NW 3.5 mph - N/A   Mostly Cloudy
7:16 AM 46.4 °F - 37.4 °F 71% 30.26 in 10.0 mi Calm Calm - N/A   Scattered Clouds
7:36 AM 46.4 °F - 37.4 °F 71% 30.26 in 10.0 mi Calm Calm - N/A   Scattered Clouds
7:56 AM 48.2 °F - 39.2 °F 71% 30.27 in 10.0 mi Calm Calm - N/A   Mostly Cloudy
8:16 AM 48.2 °F - 42.8 °F 82% 30.27 in 10.0 mi Calm Calm - N/A   Overcast
8:31 AM 48.2 °F - 42.8 °F 82% 30.27 in 10.0 mi Calm Calm - N/A   Overcast
8:51 AM 50.0 °F - 42.8 °F 76% 30.27 in 10.0 mi Calm Calm - N/A   Overcast
9:11 AM 51.8 °F - 41.0 °F 67% 30.27 in 10.0 mi Calm Calm - N/A   Overcast
9:31 AM 53.6 °F - 41.0 °F 62% 30.27 in 10.0 mi Calm Calm - N/A   Overcast
9:52 AM 53.6 °F - 41.0 °F 62% 30.26 in 10.0 mi Calm Calm - N/A   Overcast
10:12 AM 55.4 °F - 42.8 °F 63% 30.26 in 10.0 mi Calm Calm - N/A   Scattered Clouds
10:32 AM 55.4 °F - 42.8 °F 63% 30.26 in 10.0 mi Calm Calm - N/A   Mostly Cloudy
10:52 AM 55.4 °F - 42.8 °F 63% 30.26 in 10.0 mi Calm Calm - N/A   Mostly Cloudy
11:12 AM 55.4 °F - 42.8 °F 63% 30.26 in 10.0 mi Calm Calm - N/A   Mostly Cloudy
11:32 AM 57.2 °F - 42.8 °F 59% 30.26 in 10.0 mi Calm Calm - N/A   Overcast
11:52 AM 57.2 °F - 42.8 °F 59% 30.26 in 10.0 mi SE 5.8 mph - N/A   Mostly Cloudy
12:12 PM 57.2 °F - 42.8 °F 59% 30.26 in 10.0 mi SSE 6.9 mph - N/A   Mostly Cloudy
12:32 PM 57.2 °F - 42.8 °F 59% 30.26 in 10.0 mi SSE 8.1 mph - N/A   Mostly Cloudy
12:53 PM 60.8 °F - 42.8 °F 52% 30.26 in 10.0 mi SSE 5.8 mph - N/A   Mostly Cloudy
1:13 PM 60.8 °F - 42.8 °F 52% 30.26 in 10.0 mi South 4.6 mph - N/A   Mostly Cloudy
1:33 PM 60.8 °F - 42.8 °F 52% 30.25 in 10.0 mi South 4.6 mph - N/A   Overcast
1:53 PM 60.8 °F - 42.8 °F 52% 30.25 in 10.0 mi Calm Calm - N/A   Overcast
2:13 PM 60.8 °F - 42.8 °F 52% 30.25 in 10.0 mi Calm Calm - N/A   Overcast
2:33 PM 60.8 °F - 42.8 °F 52% 30.25 in 10.0 mi Calm Calm - N/A   Mostly Cloudy
2:53 PM 60.8 °F - 44.6 °F 55% 30.25 in 10.0 mi South 3.5 mph - N/A   Mostly Cloudy
3:13 PM 60.8 °F - 42.8 °F 52% 30.24 in 10.0 mi ESE 6.9 mph - N/A   Overcast
3:33 PM 60.8 °F - 44.6 °F 55% 30.23 in 10.0 mi SE 8.1 mph - N/A   Mostly Cloudy
3:53 PM 60.8 °F - 44.6 °F 55% 30.23 in 10.0 mi ESE 4.6 mph - N/A   Mostly Cloudy
4:14 PM 60.8 °F - 44.6 °F 55% 30.22 in 10.0 mi SE 3.5 mph - N/A   Mostly Cloudy
4:34 PM 60.8 °F - 44.6 °F 55% 30.22 in 10.0 mi East 4.6 mph - N/A   Mostly Cloudy
4:54 PM 57.2 °F - 44.6 °F 63% 30.22 in 10.0 mi East 8.1 mph - N/A   Scattered Clouds
5:14 PM 57.2 °F - 44.6 °F 63% 30.22 in 10.0 mi East 10.4 mph - N/A   Scattered Clouds
5:34 PM 57.2 °F - 44.6 °F 63% 30.22 in 10.0 mi ESE 8.1 mph - N/A   Scattered Clouds
5:54 PM 59.0 °F - 44.6 °F 59% 30.22 in 10.0 mi East 10.4 mph - N/A   Scattered Clouds
6:14 PM 57.2 °F - 44.6 °F 63% 30.22 in 10.0 mi ENE 11.5 mph - N/A   Clear
6:34 PM 57.2 °F - 44.6 °F 63% 30.22 in 10.0 mi East 8.1 mph - N/A   Clear
6:54 PM 55.4 °F - 44.6 °F 67% 30.22 in 10.0 mi ENE 9.2 mph - N/A   Clear
7:14 PM 55.4 °F - 44.6 °F 67% 30.22 in 10.0 mi East 9.2 mph - N/A   Clear
7:35 PM 53.6 °F - 44.6 °F 72% 30.22 in 10.0 mi East 4.6 mph - N/A   Clear
7:55 PM 53.6 °F - 44.6 °F 72% 30.23 in 10.0 mi East 5.8 mph - N/A   Clear
8:15 PM 51.8 °F - 44.6 °F 76% 30.23 in 7.0 mi East 4.6 mph - N/A   Clear
8:35 PM 51.8 °F - 42.8 °F 71% 30.23 in 10.0 mi East 3.5 mph - N/A   Clear
8:55 PM 50.0 °F - 42.8 °F 76% 30.24 in 7.0 mi East 4.6 mph - N/A   Clear
9:15 PM 50.0 °F - 42.8 °F 76% 30.25 in 7.0 mi Calm Calm - N/A   Clear
9:35 PM 48.2 °F - 42.8 °F 82% 30.26 in 7.0 mi Calm Calm - N/A   Clear
9:55 PM 46.4 °F - 42.8 °F 87% 30.27 in 7.0 mi Calm Calm - N/A   Clear
10:15 PM 48.2 °F - 42.8 °F 82% 30.28 in 7.0 mi Calm Calm - N/A   Clear
10:36 PM 46.4 °F - 42.8 °F 87% 30.29 in 7.0 mi Calm Calm - N/A   Clear
10:56 PM 46.4 °F 43.5 °F 39.2 °F 76% 30.29 in 7.0 mi ENE 5.8 mph - N/A   Scattered Clouds
11:16 PM 46.4 °F 45.2 °F 39.2 °F 76% 30.30 in 10.0 mi East 3.5 mph - N/A   Clear
11:36 PM 46.4 °F 43.5 °F 39.2 °F 76% 30.31 in 10.0 mi ENE 5.8 mph - N/A   Clear
11:56 PM 44.6 °F 40.2 °F 37.4 °F 76% 30.31 in 10.0 mi ENE 8.1 mph - N/A   Clear